Weather History for Crockett, TX

Change the Weather History Date:

Monday, July 22, 2013

  Actual Average (KLFK) Record (KLFK)
Temperature  
Mean Temperature 85 °F 83 °F  
Max Temperature 95 °F 94 °F 104 °F (1932)
Min Temperature 75 °F 72 °F 61 °F (1970)
Degree Days  
Heating Degree Days 0 0  
Month to date heating degree days 0  
Since 1 June heating degree days 0  
Since 1 July heating degree days 0  
Cooling Degree Days 20 18  
Month to date cooling degree days 387  
Year to date cooling degree days 1308  
Since 1 June cooling degree days 839  
Growing Degree Days 35 (Base 50)    
Moisture  
Dew Point 74 °F    
Average Humidity 73    
Maximum Humidity 100    
Minimum Humidity 47    
Precipitation  
Precipitation 0.00 in 0.08 in 2.45 in (1919)
Month to date precipitation 2.28  
Year to date precipitation 26.48  
Snow  
Snow 0.00 in - - ()
Month to date snowfall  
Since 1 June snowfall  
Since 1 July snowfall  
Snow Depth -    
Sea Level Pressure  
Sea Level Pressure 30.00 in    
Wind  
Wind Speed 7 mph (South)    
Max Wind Speed 15 mph    
Max Gust Speed 17 mph    
Visibility 8 miles    
Events      
T = Trace of Precipitation, MM = Missing Value Source: NWS Daily Summary

Daily Weather History Graph

Daily Weather History Graph

Search for Another Location

Airport:

Trip Planner

Search our weather history database for the weather conditions in past years. The results will help you decide how hot, cold, wet, or windy it might be!

Date:

Astronomy

Jul. 22, 2013 Rise Set
Actual Time 6:32 AM CDT 8:23 PM CDT
Civil Twilight 6:05 AM CDT 8:50 PM CDT
Nautical Twilight 5:32 AM CDT 9:23 PM CDT
Astronomical Twilight 4:57 AM CDT 9:57 PM CDT
Moon 8:16 PM CDT (7/22) 6:25 AM CDT (7/22)
Length of Visible Light 14h 45m
Length of Day
13h 51m
Full, 100% of the Moon is Illuminated
Jul 22
Full
Jul 22
Full
Jul 29
Last Quarter
Aug 6
New
Aug 14
First Quarter

Hourly Weather History & Observations

Time (CDT) Temp. Heat Index Dew Point Humidity Pressure Visibility Wind Dir Wind Speed Gust Speed Precip Events Conditions
12:15 AM 78.8 °F - 73.4 °F 83% 30.00 in 10.0 mi South 6.9 mph - N/A   Clear
12:35 AM 78.8 °F - 73.4 °F 83% 30.01 in 10.0 mi South 6.9 mph - N/A   Clear
12:55 AM 78.8 °F - 73.4 °F 83% 30.01 in 10.0 mi South 6.9 mph - N/A   Clear
1:15 AM 77.0 °F - 73.4 °F 89% 30.01 in 9.0 mi South 8.1 mph - N/A   Clear
1:35 AM 77.0 °F - 73.4 °F 89% 30.01 in 8.0 mi South 5.8 mph - N/A   Clear
1:55 AM 75.2 °F - 73.4 °F 94% 30.01 in 9.0 mi South 4.6 mph - N/A   Clear
2:15 AM 75.2 °F - 73.4 °F 94% 30.01 in 8.0 mi South 4.6 mph - N/A   Partly Cloudy
2:35 AM 75.2 °F - 73.4 °F 94% 30.01 in 9.0 mi South 6.9 mph - N/A   Mostly Cloudy
2:55 AM 77.0 °F - 73.4 °F 89% 30.00 in 8.0 mi South 8.1 mph - N/A   Overcast
3:15 AM 75.2 °F - 73.4 °F 94% 30.00 in 8.0 mi South 4.6 mph - N/A   Mostly Cloudy
3:35 AM 75.2 °F - 73.4 °F 94% 30.00 in 8.0 mi South 5.8 mph - N/A   Mostly Cloudy
3:55 AM 75.2 °F - 73.4 °F 94% 30.00 in 6.0 mi South 3.5 mph - N/A   Mostly Cloudy
4:15 AM 75.2 °F - 73.4 °F 94% 30.00 in 7.0 mi SSE 3.5 mph - N/A   Mostly Cloudy
4:35 AM 75.2 °F - 73.4 °F 94% 30.00 in 6.0 mi South 4.6 mph - N/A   Partly Cloudy
4:55 AM 75.2 °F - 73.4 °F 94% 30.00 in 6.0 mi South 3.5 mph - N/A   Partly Cloudy
5:15 AM 75.2 °F - 73.4 °F 94% 30.01 in 5.0 mi SSE 4.6 mph - N/A   Mostly Cloudy
5:35 AM 75.2 °F - 75.2 °F 100% 30.01 in 5.0 mi Calm Calm - N/A   Mostly Cloudy
5:55 AM 75.2 °F - 75.2 °F 100% 30.02 in 5.0 mi Calm Calm - N/A   Overcast
6:15 AM 75.2 °F - 75.2 °F 100% 30.02 in 5.0 mi Calm Calm - N/A   Overcast
6:35 AM 75.2 °F - 75.2 °F 100% 30.02 in 4.0 mi SE 3.5 mph - N/A   Overcast
6:55 AM 75.2 °F - 75.2 °F 100% 30.03 in 4.0 mi SSE 3.5 mph - N/A   Scattered Clouds
7:15 AM 77.0 °F - 75.2 °F 94% 30.03 in 5.0 mi Calm Calm - N/A   Scattered Clouds
7:35 AM 77.0 °F - 75.2 °F 94% 30.03 in 5.0 mi South 5.8 mph - N/A   Partly Cloudy
7:55 AM 78.8 °F - 75.2 °F 89% 30.03 in 6.0 mi South 6.9 mph - N/A   Scattered Clouds
8:35 AM 80.6 °F 87.1 °F 77.0 °F 89% 30.04 in 7.0 mi SSW 5.8 mph - N/A   Scattered Clouds
9:35 AM 84.2 °F 92.3 °F 75.2 °F 74% 30.04 in 7.0 mi SW 12.7 mph 16.1 mph N/A   Mostly Cloudy
9:55 AM 84.2 °F 92.3 °F 75.2 °F 74% 30.05 in 7.0 mi SW 15.0 mph - N/A   Mostly Cloudy
10:15 AM 84.2 °F 92.3 °F 75.2 °F 74% 30.05 in 7.0 mi SW 11.5 mph - N/A   Mostly Cloudy
10:35 AM 84.2 °F 92.3 °F 75.2 °F 74% 30.05 in 8.0 mi WSW 8.1 mph - N/A   Mostly Cloudy
10:55 AM 87.8 °F 95.6 °F 73.4 °F 62% 30.06 in 8.0 mi SSW 13.8 mph - N/A   Partly Cloudy
11:15 AM 89.6 °F 98.2 °F 73.4 °F 59% 30.06 in 10.0 mi SW 11.5 mph - N/A   Clear
11:35 AM 87.8 °F 97.6 °F 75.2 °F 66% 30.05 in 9.0 mi WSW 8.1 mph - N/A   Scattered Clouds
11:55 AM 89.6 °F 99.8 °F 75.2 °F 62% 30.05 in 9.0 mi SSW 8.1 mph - N/A   Partly Cloudy
12:15 PM 89.6 °F 98.2 °F 73.4 °F 59% 30.05 in 9.0 mi SW 11.5 mph - N/A   Clear
12:35 PM 89.6 °F 98.2 °F 73.4 °F 59% 30.04 in 9.0 mi SW 9.2 mph - N/A   Clear
12:55 PM 91.4 °F 100.1 °F 73.4 °F 55% 30.03 in 9.0 mi SSW 10.4 mph 17.3 mph N/A   Clear
1:15 PM 93.2 °F 102.4 °F 73.4 °F 52% 30.03 in 8.0 mi SSW 8.1 mph - N/A   Clear
1:35 PM 91.4 °F 100.1 °F 73.4 °F 55% 30.02 in 8.0 mi SSW 6.9 mph - N/A   Clear
1:55 PM 93.2 °F 105.0 °F 75.2 °F 56% 30.02 in 10.0 mi SSW 9.2 mph - N/A   Clear
2:15 PM 93.2 °F 102.4 °F 73.4 °F 52% 30.01 in 9.0 mi SSW 5.8 mph - N/A   Clear
2:35 PM 93.2 °F 102.4 °F 73.4 °F 52% 30.00 in 9.0 mi SW 9.2 mph - N/A   Unknown
2:55 PM 93.2 °F 100.5 °F 71.6 °F 49% 30.00 in 8.0 mi SSW 10.4 mph 16.1 mph N/A   Unknown
3:15 PM 93.2 °F 100.5 °F 71.6 °F 49% 29.99 in 9.0 mi SSW 9.2 mph - N/A   Unknown
3:35 PM 93.2 °F 100.5 °F 71.6 °F 49% 29.98 in 10.0 mi South 12.7 mph - N/A   Unknown
3:55 PM 93.2 °F 100.5 °F 71.6 °F 49% 29.98 in 9.0 mi SW 10.4 mph 16.1 mph N/A   Unknown
4:15 PM 95.0 °F 103.2 °F 71.6 °F 47% 29.98 in 10.0 mi SSW 8.1 mph - N/A   Unknown
4:35 PM 95.0 °F 103.2 °F 71.6 °F 47% 29.97 in 9.0 mi SSW 8.1 mph - N/A   Unknown
4:55 PM 95.0 °F 103.2 °F 71.6 °F 47% 29.96 in 9.0 mi SW 9.2 mph - N/A   Unknown
5:15 PM 95.0 °F 103.2 °F 71.6 °F 47% 29.95 in 9.0 mi SSW 9.2 mph - N/A   Unknown
5:35 PM 93.2 °F 100.5 °F 71.6 °F 49% 29.96 in 9.0 mi SSW 8.1 mph - N/A   Unknown
5:55 PM 95.0 °F 103.2 °F 71.6 °F 47% 29.95 in 9.0 mi South 9.2 mph - N/A   Unknown
6:15 PM 93.2 °F 100.5 °F 71.6 °F 49% 29.95 in 8.0 mi South 8.1 mph - N/A   Unknown
6:35 PM 93.2 °F 100.5 °F 71.6 °F 49% 29.94 in 10.0 mi SSE 6.9 mph - N/A   Unknown
6:55 PM 93.2 °F 102.4 °F 73.4 °F 52% 29.94 in 8.0 mi SSE 9.2 mph - N/A   Unknown
7:15 PM 91.4 °F 100.1 °F 73.4 °F 55% 29.95 in 8.0 mi SSE 10.4 mph 16.1 mph N/A   Unknown
7:35 PM 89.6 °F 99.8 °F 75.2 °F 62% 29.95 in 8.0 mi SSE 6.9 mph - N/A   Unknown
7:55 PM 89.6 °F 99.8 °F 75.2 °F 62% 29.95 in 8.0 mi SSE 9.2 mph - N/A   Clear
8:15 PM 87.8 °F 97.6 °F 75.2 °F 66% 29.96 in 7.0 mi SSE 9.2 mph - N/A   Clear
8:35 PM 86.0 °F 95.1 °F 75.2 °F 70% 29.96 in 7.0 mi SSE 6.9 mph - N/A   Clear
8:55 PM 86.0 °F 96.9 °F 77.0 °F 74% 29.96 in 7.0 mi SSE 8.1 mph - N/A   Clear
9:15 PM 84.2 °F 94.1 °F 77.0 °F 79% 29.97 in 8.0 mi SSE 9.2 mph 16.1 mph N/A   Clear
9:35 PM 84.2 °F 92.3 °F 75.2 °F 74% 29.97 in 8.0 mi SSE 9.2 mph - N/A   Clear
9:55 PM 84.2 °F 92.3 °F 75.2 °F 74% 29.98 in 7.0 mi SSE 9.2 mph - N/A   Clear
10:15 PM 82.4 °F 89.5 °F 75.2 °F 79% 29.99 in 7.0 mi SSE 6.9 mph - N/A   Clear
10:35 PM 82.4 °F 89.5 °F 75.2 °F 79% 30.00 in 8.0 mi SSE 5.8 mph - N/A   Clear
10:55 PM 82.4 °F 89.5 °F 75.2 °F 79% 30.01 in 7.0 mi SSE 9.2 mph - N/A   Clear
11:15 PM 82.4 °F 89.5 °F 75.2 °F 79% 30.01 in 7.0 mi South 9.2 mph - N/A   Clear
11:35 PM 82.4 °F 89.5 °F 75.2 °F 79% 30.01 in 8.0 mi South 8.1 mph - N/A   Clear
11:55 PM 80.6 °F 86.2 °F 75.2 °F 84% 30.02 in 7.0 mi South 5.8 mph - N/A   Clear